FW0151 Weather Reports


time (UTC)temp
C
wind
direction
speed
KPH
gust
KPH
rain 1hr
cm
rain 24hr
cm
rain mn
cm
humidity
%
barometer
mb
20260506154518 12 338 11.3 20.9 0.00 0.00 0.00 77 1010.7
20260506153518 12 0 11.3 19.3 0.00 0.00 0.00 76 1010.8
20260506152517 12 338 11.3 24.1 0.00 0.00 0.00 76 1010.8
20260506151516 12 23 9.7 22.5 0.00 0.00 0.00 77 1010.7
20260506150603 12 23 12.9 17.7 0.00 0.00 0.00 77 1010.8
20260506145518 12 0 9.7 17.7 0.00 0.00 0.00 76 1010.8
20260506144518 12 0 11.3 19.3 0.00 0.00 0.00 75 1010.8
20260506143517 12 338 11.3 20.9 0.00 0.00 0.00 74 1010.7
20260506142516 12 338 9.7 20.9 0.00 0.00 0.00 74 1010.6
20260506141516 13 338 9.7 19.3 0.00 0.00 0.00 73 1010.7
20260506140517 13 0 12.9 22.5 0.00 0.00 0.00 74 1010.6
20260506135537 13 338 11.3 22.5 0.00 0.00 0.00 73 1010.7
20260506134516 13 338 12.9 19.3 0.00 0.00 0.00 73 1010.7
20260506133516 13 338 12.9 20.9 0.00 0.00 0.00 74 1010.7
20260506132519 12 0 11.3 19.3 0.00 0.00 0.00 74 1010.6
20260506131538 12 23 11.3 22.5 0.00 0.00 0.00 74 1010.7
20260506130516 12 0 8.0 16.1 0.00 0.00 0.00 74 1010.6
20260506125518 12 0 9.7 16.1 0.00 0.00 0.00 74 1010.6
20260506124517 12 338 9.7 17.7 0.00 0.00 0.00 75 1010.6
20260506123516 12 338 11.3 19.3 0.00 0.00 0.00 75 1010.4
20260506122516 12 0 9.7 16.1 0.00 0.00 0.00 75 1010.4
20260506121516 12 0 11.3 17.7 0.00 0.00 0.00 74 1010.4
20260506120516 12 23 9.7 19.3 0.00 0.00 0.00 73 1010.3
20260506115536 12 338 12.9 19.3 0.00 0.00 0.00 73 1010.3
20260506114518 12 0 11.3 19.3 0.00 0.00 0.00 73 1010.4
20260506113524 12 23 11.3 19.3 0.00 0.00 0.00 73 1010.3
20260506112518 12 23 11.3 17.7 0.00 0.00 0.00 73 1010.3
20260506111518 12 23 12.9 20.9 0.00 0.00 0.00 72 1010.3
20260506110516 13 23 12.9 22.5 0.00 0.00 0.00 72 1010.2
20260506105516 13 23 12.9 19.3 0.00 0.00 0.00 72 1010.2
20260506104516 12 23 11.3 20.9 0.00 0.00 0.00 73 1010.3
20260506103517 12 0 12.9 19.3 0.00 0.00 0.00 72 1010.3
20260506102517 12 23 11.3 17.7 0.00 0.00 0.00 72 1010.3
20260506101522 12 23 8.0 16.1 0.00 0.00 0.00 74 1010.3
20260506100519 12 23 9.7 16.1 0.00 0.00 0.00 73 1010.2
20260506095516 12 23 8.0 14.5 0.00 0.00 0.00 74 1010.1
20260506094518 12 23 11.3 25.7 0.00 0.00 0.00 74 1010.1
20260506093518 12 338 11.3 17.7 0.00 0.00 0.00 74 1009.9
20260506092517 12 0 11.3 19.3 0.00 0.00 0.00 73 1010.0
20260506091517 12 0 9.7 16.1 0.00 0.00 0.00 73 1010.0
20260506090518 12 0 11.3 17.7 0.00 0.00 0.00 73 1009.9
20260506085516 12 0 12.9 20.9 0.00 0.00 0.00 74 1009.9
20260506084516 12 23 12.9 22.5 0.00 0.00 0.00 73 1009.8
20260506083516 12 23 14.5 22.5 0.00 0.00 0.00 73 1009.8
20260506082518 12 0 12.9 24.1 0.00 0.00 0.00 73 1009.6
20260506081518 12 0 12.9 20.9 0.00 0.00 0.00 72 1009.6
20260506080517 12 23 11.3 22.5 0.00 0.00 0.00 74 1009.5
20260506073517 12 23 11.3 20.9 0.00 0.00 0.00 74 1009.5
20260506072517 11 338 9.7 17.7 0.00 0.00 0.00 73 1009.4
20260506071517 12 0 11.3 17.7 0.00 0.00 0.00 72 1009.4
20260506070516 12 338 11.3 16.1 0.00 0.00 0.00 73 1009.4
20260506062517 11 0 9.7 20.9 0.00 0.00 0.00 77 1009.4
20260506061516 11 23 8.0 17.7 0.00 0.00 0.00 78 1009.4
20260506060519 10 0 8.0 17.7 0.00 0.00 0.00 79 1009.5
20260506050517 9 0 3.2 8.0 0.00 0.00 0.00 82 1009.4
20260506044536 9 0 4.8 11.3 0.00 0.00 0.00 82 1009.3
20260506043516 9 338 6.4 9.7 0.00 0.00 0.00 82 1009.2
20260506042600 9 0 6.4 11.3 0.00 0.00 0.00 82 1009.4
20260506041518 9 0 8.0 12.9 0.00 0.00 0.00 81 1009.4
20260506040519 9 23 8.0 12.9 0.00 0.00 0.00 81 1009.3
20260506035521 9 23 8.0 16.1 0.00 0.00 0.00 81 1009.3
20260506034517 9 0 6.4 16.1 0.00 0.00 0.00 82 1009.3
20260506033516 9 0 8.0 12.9 0.00 0.00 0.00 82 1009.4
20260506032516 10 0 8.0 14.5 0.00 0.00 0.00 82 1009.4
20260506031518 9 0 9.7 14.5 0.00 0.00 0.00 83 1009.4
20260506030517 9 0 6.4 12.9 0.00 0.00 0.00 84 1009.4
20260506025546 9 0 6.4 12.9 0.00 0.00 0.00 85 1009.4
20260506024517 9 0 6.4 14.5 0.00 0.00 0.00 85 1009.3
20260506023517 9 338 4.8 9.7 0.00 0.00 0.00 86 1009.4
20260506022519 8 23 4.8 8.0 0.00 0.00 0.00 86 1009.3
20260506021517 8 0 4.8 9.7 0.00 0.00 0.00 86 1009.4
20260506020518 8 0 4.8 12.9 0.00 0.00 0.00 86 1009.4
20260506015516 8 0 4.8 9.7 0.00 0.00 0.00 86 1009.5
20260506014517 9 0 4.8 9.7 0.00 0.00 0.00 86 1009.5
20260506013516 9 0 4.8 9.7 0.00 0.00 0.00 86 1009.6
20260506012517 9 0 4.8 9.7 0.00 0.00 0.00 86 1009.6
20260506011516 9 0 4.8 9.7 0.00 0.00 0.00 86 1009.6
20260506010559 9 23 6.4 12.9 0.00 0.00 0.00 86 1009.5
20260506005517 9 0 8.0 14.5 0.00 0.00 0.00 86 1009.6
20260506004518 9 0 6.4 12.9 0.00 0.00 0.00 86 1009.7
20260506003517 9 0 6.4 11.3 0.00 0.00 0.00 86 1009.8
20260506002516 9 23 8.0 14.5 0.00 0.00 0.00 86 1009.8
20260506001517 9 23 4.8 11.3 0.00 0.00 0.00 86 1009.9
20260506000516 9 23 6.4 12.9 0.00 0.00 0.00 86 1010.0
20260505235517 9 23 6.4 11.3 0.00 0.00 0.00 86 1009.9
20260505234539 10 23 6.4 9.7 0.00 0.00 0.00 86 1010.0
20260505233517 10 23 6.4 16.1 0.00 0.00 0.00 85 1010.0
20260505232516 10 23 6.4 11.3 0.00 0.00 0.00 86 1009.9
20260505231517 10 23 6.4 11.3 0.00 0.00 0.00 85 1010.0
20260505230516 10 23 6.4 11.3 0.00 0.00 0.00 85 1010.0
20260505225519 10 23 6.4 11.3 0.00 0.00 0.00 85 1010.0
20260505224539 10 23 8.0 14.5 0.00 0.00 0.00 84 1010.0
20260505223517 10 23 8.0 14.5 0.00 0.00 0.00 84 1009.9
20260505222537 10 23 8.0 17.7 0.00 0.00 0.00 84 1010.0
20260505221517 10 23 8.0 17.7 0.00 0.00 0.00 83 1010.0
20260505220526 10 23 6.4 12.9 0.00 0.00 0.00 83 1010.0
20260505215519 10 23 8.0 16.1 0.00 0.00 0.00 83 1010.1
20260505214558 10 23 8.0 17.7 0.00 0.00 0.00 82 1010.0
20260505213537 10 23 9.7 16.1 0.00 0.00 0.00 82 1010.0
20260505212517 10 23 8.0 14.5 0.00 0.00 0.00 82 1010.0
20260505211537 10 23 8.0 14.5 0.00 0.00 0.00 82 1010.0
20260505210517 10 23 6.4 11.3 0.00 0.00 0.00 82 1010.1
20260505205537 10 23 9.7 14.5 0.00 0.00 0.00 82 1010.1
20260505204517 10 23 8.0 17.7 0.00 0.00 0.00 81 1010.1
20260505203543 10 23 9.7 12.9 0.00 0.00 0.00 81 1010.1
20260505202518 10 23 9.7 19.3 0.00 0.00 0.00 80 1010.0
20260505201519 10 23 8.0 20.9 0.00 0.00 0.00 79 1010.0
20260505200524 10 23 11.3 20.9 0.00 0.00 0.00 79 1009.9
20260505195517 10 23 11.3 17.7 0.00 0.00 0.00 78 1009.8
20260505194517 10 23 9.7 19.3 0.00 0.00 0.00 78 1009.7
20260505193517 11 23 11.3 19.3 0.00 0.00 0.00 78 1009.7
20260505192517 11 23 8.0 14.5 0.00 0.00 0.00 77 1009.6
20260505191519 11 23 12.9 22.5 0.00 0.00 0.00 76 1009.5
20260505190518 11 23 11.3 19.3 0.00 0.00 0.00 77 1009.5
20260505185518 11 23 11.3 20.9 0.00 0.00 0.00 77 1009.4
20260505184517 11 23 11.3 20.9 0.00 0.00 0.00 78 1009.4
20260505183557 11 23 9.7 19.3 0.00 0.00 0.00 78 1009.4
20260505182517 11 23 9.7 19.3 0.00 0.00 0.00 78 1009.4
20260505181521 11 23 12.9 24.1 0.00 0.00 0.00 77 1009.4
20260505180517 11 23 16.1 27.4 0.00 0.00 0.00 77 1009.3
20260505175520 12 23 14.5 27.4 0.00 0.00 0.00 77 1009.4
20260505174517 12 23 12.9 22.5 0.00 0.00 0.00 77 1009.4
20260505173517 12 23 16.1 27.4 0.00 0.00 0.00 76 1009.3
20260505172537 12 23 14.5 24.1 0.00 0.00 0.00 75 1009.4
20260505171517 12 23 12.9 22.5 0.00 0.00 0.00 75 1009.4
20260505170517 12 23 14.5 22.5 0.00 0.00 0.00 76 1009.3
20260505165517 12 23 16.1 27.4 0.00 0.00 0.00 76 1009.3
20260505164517 12 23 16.1 24.1 0.00 0.00 0.00 77 1009.3
20260505163559 12 23 16.1 25.7 0.00 0.00 0.00 77 1009.3
20260505162538 13 23 16.1 25.7 0.00 0.00 0.00 76 1009.2
20260505161519 13 23 12.9 29.0 0.00 0.00 0.00 76 1009.2
20260505160517 13 23 14.5 25.7 0.00 0.00 0.00 75 1009.2